Preview of NWS' New Version of Forecast
This preview is not operational and should not be used for support decisions.

Regional Weather Roundup (RWR)

Issued by National Weather Service (NWS)

                            
000
ASUS43 KBIS 181602
RWRND 

NORTH DAKOTA REGIONAL WEATHER ROUNDUP
NATIONAL WEATHER SERVICE BISMARCK ND
1000 AM CST MON FEB 18 2019

NOTE: "FAIR" INDICATES FEW OR NO CLOUDS BELOW 12,000 FEET WITH NO
SIGNIFICANT WEATHER AND/OR OBSTRUCTIONS TO VISIBILITY.


NDZ001>003-009>011-017-181700-
NORTHWEST NORTH DAKOTA
  
CITY           SKY/WX    TMP DP  RH WIND       PRES   REMARKS
WILLISTON      MOSUNNY    0  -5  79 SW8       30.43R WCI -14          
MINOT          CLOUDY     0  -8  69 N3        30.45S                  
MINOT AFB      CLOUDY    -3  -7  81 N3        30.45S                  
$$
 
NDZ018>021-031>035-040>046-181700-
SOUTHWEST NORTH DAKOTA
  
CITY           SKY/WX    TMP DP  RH WIND       PRES   REMARKS
BISMARCK       SUNNY     -2  -9  72 SW3       30.48S                  
DICKINSON      PTSUNNY   -2  -8  76 W9        30.35S WCI -18          
GARRISON         N/A    -12 -15  86 CALM      30.43S                  
HETTINGER ARPT CLOUDY    -2  -8  76 W5        30.38S HAZE    WCI -12  
$$
 
NDZ004>008-012>016-024-026-027-054-181700-
NORTHEAST NORTH DAKOTA
  
CITY           SKY/WX    TMP DP  RH WIND       PRES   REMARKS
GRAND FORKS    MOSUNNY   -7 -13  75 NW7       30.54R WCI -21          
GRND FRKS AFB  SUNNY     -4 -12  68 N8        30.53R WCI -19          
DEVILS LAKE    CLOUDY    -6 -10  83 N7        30.49S WCI -20          
$$
 
NDZ022-023-025-028>030-036>039-047>053-181700-
SOUTHEAST NORTH DAKOTA
  
CITY           SKY/WX    TMP DP  RH WIND       PRES   REMARKS
FARGO          SUNNY     -6 -11  79 NW8       30.52R WCI -21          
JAMESTOWN      CLOUDY    -4 -10  75 N9        30.47R WCI -20          
$$